Location: Date Creek
(34.2167°N, 113.0301°W)
Time: 03:31:39
(UTC-07:00)

Envisat - Visible Passes

Search period start: 23 June 2018 00:00
Search period end: 03 July 2018 00:00
Orbit: 764 x 766 km, 98.2° (Epoch: 22 June)

Date Brightness Start Highest point End Pass type
(mag) Time Alt. Az. Time Alt. Az. Time Alt. Az.
24 Jun 5.3 20:51:43 10° SW 20:55:35 22° W 20:59:28 10° NW visible
25 Jun 3.9 20:13:45 10° S 20:18:41 52° W 20:23:39 10° NNW visible
26 Jun 5.8 21:19:48 10° WSW 21:21:22 11° W 21:22:56 10° WNW visible
27 Jun 4.9 20:40:02 10° SSW 20:44:21 28° W 20:48:41 10° NW visible
29 Jun 5.6 21:07:14 10° SW 21:10:06 15° W 21:12:59 10° WNW visible
30 Jun 4.5 20:28:30 10° SSW 20:33:09 36° W 20:37:48 10° NNW visible
02 Jul 5.4 20:55:14 10° SW 20:58:51 20° W 21:02:30 10° NW visible
